Погода в Ланкаране

Погода в Ланкаране : погода сейчас, прогноз погоды и архив. Всё, что Вы хотите узнать о погоде в Ланкаране!

Поиск расширенной информации на нашем сайте:

Полезная информация: Brady хочет познакомиться - brady tls2200.

Другие новости

Новости СМИ2

Главная страница сайта

Новости сайта

03.07.2017

Напоминаем, что на нашем специализированном сайте Метеоцентр.Азия вы можете получить высокодетализированные автоматические прогнозы погоды по пунктам России, СНГ и мира в авиационном формате (включающие направление и скорость ветра, видимость, явления погоды, количество и форму облачности, нижнюю и верхнюю границу облачности).

Рекомендуем: готовые проекты бань, проекты деревянных бань

Погода в Ланкаране - сегодня

Время (UTC), дата Ветер
(°,м/с) 
Видим.   Явления Облачность Т
(°С)
Тd
(°С)
f(%) Тe
(°С)
Pmin
(гПа)
dP
(гПа)
Po
(мм)
O2
(г/м3)
Тmin Tmax R s Состояние
почвы
15 19.08.17 090 (В) 20000 м    ясно 
+29.1 +22.7 68 +54  1013.2  0.1  761  271           
18 19.08.17 290 (З) 4000 м    ясно 
+25 +22.5 86 +49  1014.7  1.5  762  275           
21 19.08.17 200 (Ю) 4000 м    6/0 средняя 
[Sc|Ac lent]
+24.1 +21.2 84 +45  1014.7  762  277           
00 20.08.17 200 (Ю) 4000 м    3/0 средняя 
[Ac lent]
+23 +18.4 75 +38  1014.5  -0.2  762  279           
03 20.08.17 230 (ЮЗ) 10 км    3/0 средняя 
[Ac lent]
+22.5 +18.1 76 +37  1014.9  0.4  762  280           
06 20.08.17 320 (СЗ) 20000 м    6/0 средняя 
[Ac lent]
+29.6 +22.9 67 +55  1015.2  0.3  763  271           
09 20.08.17 050 (СВ) 20000 м    ясно 
+32.1 +22 55 +55  1013.8  -1.4  761  269           
12 20.08.17 110 (В) 20000 м    ясно 
+30.9 +21.9 59 +54  1012.7  -1.1  761  270           
15 20.08.17 180 (Ю) 20000 м    ясно 
+28.8 +23.1 71 +55  1011.7  -1  760  271           
18 20.08.17 140 (ЮВ) 4000 м    ясно 
+26.1 +22.2 79 +50  1012.6  0.9  761  274           
21 20.08.17 270 (З) 4000 м    6/0 средняя 
[Ac lent]
+22.8 +20.5 87 +42  1012  -0.6  760  278           
00 21.08.17 тихо ()   4000 м    8/0 средняя 
[Ac lent]
+22.7 +20.6 88 +42  1010.8  -1.2  759  277           
03 21.08.17 250 (З) 20000 м    3/3 600 м средняя 
[Sc|Ac lent]
+22.8 +20.4 86 +42  1011.4  0.6  760  277           
06 21.08.17 360 (С) 20000 м    ясно 
+29.7 +22.2 64 +53  1011.4  760  270           
09 21.08.17 090 (В) 20000 м    ясно 
+31.6 +23.4 62 +58  1010.5  -0.9  759  268           
12 21.08.17 140 (ЮВ) 20000 м    ясно 
+31.1 +23.6 64 +58  1008.1  -2.4  757  268           
15 21.08.17 140 (ЮВ) 20000 м    ясно 
+29.2 +23.7 72 +57  1007.3  -0.8  757  269           
18 21.08.17 180 (Ю) 4000 м    ясно 
+26.1 +22.7 82 +51  1008.2  0.9  757  273           
21 21.08.17 230 (ЮЗ) 4000 м    ясно 
+23.5 +21.1 86 +44  1008.3  0.1  757  276           
00 22.08.17 230 (ЮЗ) 4000 м    ясно 
+23.3 +19.1 77 +40  1007.8  -0.5  757  277           
03 22.08.17 230 (ЮЗ) 4000 м    ясно 
+21.9 +18.2 80 +36  1008.1  -0.3  757  278           
06 22.08.17 тихо ()   20000 м    ясно 
+31.4 +23 61 +57  1008.9  0.8  758  268           
09 22.08.17 110 (В) 20000 м    ясно 
+32.7 +21.5 52 +55  1007.7  -0.2  757  267           
12 22.08.17 140 (ЮВ) 20000 м    ясно 
+32.8 +18.7 43 +48  1006.5  -1.2  756  268           
15 22.08.17 140 (ЮВ) 20000 м    ясно 
+29.7 +22.7 66 +55  1005.6  -0.9  755  269           
Время (UTC), дата Ветер
(°,м/с) 
Видим.   Явления Облачность Т
(°С)
Тd
(°С)
f(%) Тe
(°С)
Pmin
(гПа)
dP
(гПа)
Po
(мм)
O2
(г/м3)
Тmin Tmax R s Состояние
почвы

Для получения пояснительной информации подведите курсор к названию столбца.

ПОГОДА в Ланкаране - архив

Всё, что Вы хотите узнать о погоде в Ланкаране - удобно и подробно!

Выберите нужную дату (начиная с 1 января 2015* года) и нажмите кнопку "Найти".
Будут отображены архивные сводки погоды по пункту Ланкаран, начиная с указанной даты.


Отображать данные в формате CSV (для использования в таблицах Excel)


Внимание! Наш архив погоды предназначен исключительно для личного некоммерческого использования в познавательных целях. Если Вам необходимы официальные справки о состоянии погоды (для производственных, юридических, коммерческих и т.п. целей), обращайтесь в органы Росгидромета.

*Примечание: данная дата относится к архиву по метеостанциям СССР (Россия, СНГ, Балтия).
Архив по метеостанциям Зарубежной Европы и Азии (кроме Китая) хранится 10 дней, по другим регионам земного шара (Китай, Африка, Америка, Австралия, Океания) - 1 день.

Ланкаран - район местоположения метеостанции


Название, широта, долгота, высота метеостанции:
Ланкаран (аэропорт) 38.7°ш. 48.8°д. -12 м над ур. моря [Азербайджан]

Дополнительная информация

В oтличие oт бoльшинства пoгoдных сайтoв мы публикуем пoдрoбную метеoинфoрмацию в детальнoм прoфессиoнальнoм фoрмате.

Характеристики температуры и влажнoсти вoздуха измеряются на высoте 2 м в тени вдали oт зданий и деревьев.
Скoрoсть ветра измеряется на высoте 10 м (на урoвне рoста челoвека скoрoсть ветра ниже в 1.5-2 раза). Если метеoстанция нахoдится в гoрoде или в лесу, тo скoрoсть ветра занижена на 2-4 м/с пo сравнению с oткрытым местoм. Скoрoсть ветра над акватoриями крупных рек и oзёр, а также на вершинах хoлмoв на 2-5 м/с выше, чем в oбычных услoвиях.
Атмoсфернoе давление в разных тoчках местнoсти мoжет значительнo oтличаться oт давления на метеoстанции, в зависимoсти oт услoвий рельефа (при пoдъёме на 10 м давление пoнижается примернo на 1 мм рт.ст.).